owner,sensor,date,latitude,longitude,vertical_datum,sea_water_temperature,qcFlag
W and T,ioos:station:wmo:42901:2,2020-09-18T03:40:00Z,28.2162,-88.5583,30.5,28.4,11111222
W and T,ioos:station:wmo:42901:2,2020-09-18T04:00:00Z,28.2162,-88.5583,39.5,28.6,11111222
W and T,ioos:station:wmo:42901:2,2020-09-18T04:20:00Z,28.2162,-88.5583,39.6,28.8,11111222
W and T,ioos:station:wmo:42901:2,2020-09-18T04:40:00Z,28.2162,-88.5583,39.5,28.8,11111222
W and T,ioos:station:wmo:42901:2,2020-09-18T05:00:00Z,28.2162,-88.5583,39.6,28.9,11111222
W and T,ioos:station:wmo:42901:2,2020-09-18T05:20:00Z,28.2162,-88.5583,39.6,28.9,11111222
W and T,ioos:station:wmo:42901:2,2020-09-18T05:40:00Z,28.2162,-88.5583,39.5,28.9,11111222
W and T,ioos:station:wmo:42901:2,2020-09-18T06:00:00Z,28.2162,-88.5583,39.5,28.9,11111222
W and T,ioos:station:wmo:42901:2,2020-09-18T06:20:00Z,28.2162,-88.5583,39.5,28.9,11111222
W and T,ioos:station:wmo:42901:2,2020-09-18T06:40:00Z,28.2162,-88.5583,39.4,28.9,11111222
W and T,ioos:station:wmo:42901:2,2020-09-18T07:00:00Z,28.2162,-88.5583,39.1,28.9,11111222
W and T,ioos:station:wmo:42901:2,2020-09-18T07:20:00Z,28.2162,-88.5583,39.3,28.9,11111222
W and T,ioos:station:wmo:42901:2,2020-09-18T07:40:00Z,28.2162,-88.5583,39.3,28.9,11111222
W and T,ioos:station:wmo:42901:2,2020-09-18T08:00:00Z,28.2162,-88.5583,39.5,28.9,11111222
W and T,ioos:station:wmo:42901:2,2020-09-18T08:20:00Z,28.2162,-88.5583,39.4,28.9,11111222
W and T,ioos:station:wmo:42901:2,2020-09-18T08:40:00Z,28.2162,-88.5583,39.3,28.9,11111222
W and T,ioos:station:wmo:42901:2,2020-09-18T09:00:00Z,28.2162,-88.5583,39.3,28.9,11111222
W and T,ioos:station:wmo:42901:2,2020-09-18T09:20:00Z,28.2162,-88.5583,39.5,28.9,11111222
W and T,ioos:station:wmo:42901:2,2020-09-18T09:40:00Z,28.2162,-88.5583,39.6,28.9,11111222
W and T,ioos:station:wmo:42901:2,2020-09-18T10:00:00Z,28.2162,-88.5583,39.6,28.9,11111222
W and T,ioos:station:wmo:42901:2,2020-09-18T10:20:00Z,28.2162,-88.5583,39.6,28.9,11111222
W and T,ioos:station:wmo:42901:2,2020-09-18T10:40:00Z,28.2162,-88.5583,39.6,28.9,11111222
W and T,ioos:station:wmo:42901:2,2020-09-18T11:00:00Z,28.2162,-88.5583,39.6,28.8,11111222
W and T,ioos:station:wmo:42901:2,2020-09-18T11:20:00Z,28.2162,-88.5583,39.6,28.9,11111222
W and T,ioos:station:wmo:42901:2,2020-09-18T11:40:00Z,28.2162,-88.5583,39.6,28.9,11111222
W and T,ioos:station:wmo:42901:2,2020-09-18T12:00:00Z,28.2162,-88.5583,39.6,28.9,11111222
W and T,ioos:station:wmo:42901:2,2020-09-18T12:20:00Z,28.2162,-88.5583,39.6,28.9,11111222
W and T,ioos:station:wmo:42901:2,2020-09-18T12:40:00Z,28.2162,-88.5583,39.6,28.9,11111222
W and T,ioos:station:wmo:42901:2,2020-09-18T13:00:00Z,28.2162,-88.5583,39.6,28.9,11111222
W and T,ioos:station:wmo:42901:2,2020-09-18T13:20:00Z,28.2162,-88.5583,39.6,28.9,11111222
W and T,ioos:station:wmo:42901:2,2020-09-18T13:40:00Z,28.2162,-88.5583,39.6,28.8,11111222
W and T,ioos:station:wmo:42901:2,2020-09-18T14:00:00Z,28.2162,-88.5583,39.4,28.8,11111222
W and T,ioos:station:wmo:42901:2,2020-09-18T14:20:00Z,28.2162,-88.5583,39.4,28.7,11111222
W and T,ioos:station:wmo:42901:2,2020-09-18T14:40:00Z,28.2162,-88.5583,39.3,28.3,11111222
W and T,ioos:station:wmo:42901:2,2020-09-18T15:00:00Z,28.2162,-88.5583,39.4,28.5,11111222
W and T,ioos:station:wmo:42901:2,2020-09-18T15:20:00Z,28.2162,-88.5583,39.4,28.7,11111222
W and T,ioos:station:wmo:42901:2,2020-09-18T15:40:00Z,28.2162,-88.5583,39.3,28.8,11111222
W and T,ioos:station:wmo:42901:2,2020-09-18T16:00:00Z,28.2162,-88.5583,39.3,28.7,11111222
W and T,ioos:station:wmo:42901:2,2020-09-18T16:20:00Z,28.2162,-88.5583,39.3,28.6,11111222
W and T,ioos:station:wmo:42901:2,2020-09-18T16:40:00Z,28.2162,-88.5583,39.3,28.5,11111222
W and T,ioos:station:wmo:42901:2,2020-09-18T17:00:00Z,28.2162,-88.5583,39.4,28.5,11111222
W and T,ioos:station:wmo:42901:2,2020-09-18T17:20:00Z,28.2162,-88.5583,39.2,28.5,11111222
W and T,ioos:station:wmo:42901:2,2020-09-18T17:40:00Z,28.2162,-88.5583,39.1,28.6,11111222
W and T,ioos:station:wmo:42901:2,2020-09-18T18:00:00Z,28.2162,-88.5583,39.2,28.6,11111222
W and T,ioos:station:wmo:42901:2,2020-09-18T18:20:00Z,28.2162,-88.5583,39.1,28.7,11111222
W and T,ioos:station:wmo:42901:2,2020-09-18T18:40:00Z,28.2162,-88.5583,39.0,28.7,11111222
W and T,ioos:station:wmo:42901:2,2020-09-18T19:00:00Z,28.2162,-88.5583,39.1,28.8,11111222
W and T,ioos:station:wmo:42901:2,2020-09-18T19:20:00Z,28.2162,-88.5583,39.1,28.8,11111222
W and T,ioos:station:wmo:42901:2,2020-09-18T19:40:00Z,28.2162,-88.5583,39.2,28.8,11111222
W and T,ioos:station:wmo:42901:2,2020-09-18T20:00:00Z,28.2162,-88.5583,39.2,28.9,11111222
W and T,ioos:station:wmo:42901:2,2020-09-18T20:20:00Z,28.2162,-88.5583,39.3,28.9,11111222
W and T,ioos:station:wmo:42901:2,2020-09-18T20:40:00Z,28.2162,-88.5583,39.0,28.9,11111222
W and T,ioos:station:wmo:42901:2,2020-09-18T21:00:00Z,28.2162,-88.5583,39.1,28.9,11111222
W and T,ioos:station:wmo:42901:2,2020-09-18T21:20:00Z,28.2162,-88.5583,38.9,28.9,11111222
W and T,ioos:station:wmo:42901:2,2020-09-18T21:40:00Z,28.2162,-88.5583,38.9,28.9,11111222
W and T,ioos:station:wmo:42901:2,2020-09-18T22:00:00Z,28.2162,-88.5583,38.8,28.9,11111222
W and T,ioos:station:wmo:42901:2,2020-09-18T22:20:00Z,28.2162,-88.5583,38.9,28.9,11111222
W and T,ioos:station:wmo:42901:2,2020-09-18T22:40:00Z,28.2162,-88.5583,38.7,28.9,11111222
W and T,ioos:station:wmo:42901:2,2020-09-18T23:00:00Z,28.2162,-88.5583,38.8,28.9,11111222
W and T,ioos:station:wmo:42901:2,2020-09-18T23:20:00Z,28.2162,-88.5583,38.7,28.8,11111222
W and T,ioos:station:wmo:42901:2,2020-09-18T23:40:00Z,28.2162,-88.5583,38.8,28.9,11111222
W and T,ioos:station:wmo:42901:2,2020-09-19T00:00:00Z,28.2162,-88.5583,38.7,28.9,11111222
W and T,ioos:station:wmo:42901:2,2020-09-19T00:20:00Z,28.2162,-88.5583,38.7,28.9,11111222
W and T,ioos:station:wmo:42901:2,2020-09-19T00:40:00Z,28.2162,-88.5583,38.7,28.9,11111222
W and T,ioos:station:wmo:42901:2,2020-09-19T01:00:00Z,28.2162,-88.5583,39.0,28.9,11111222
W and T,ioos:station:wmo:42901:2,2020-09-19T01:20:00Z,28.2162,-88.5583,39.0,28.9,11111222
W and T,ioos:station:wmo:42901:2,2020-09-19T01:40:00Z,28.2162,-88.5583,39.1,28.9,11111222
W and T,ioos:station:wmo:42901:2,2020-09-19T02:00:00Z,28.2162,-88.5583,39.3,28.9,11111222
W and T,ioos:station:wmo:42901:2,2020-09-19T02:20:00Z,28.2162,-88.5583,39.4,28.9,11111222
W and T,ioos:station:wmo:42901:2,2020-09-19T02:40:00Z,28.2162,-88.5583,39.3,28.9,11111222
W and T,ioos:station:wmo:42901:2,2020-09-19T03:00:00Z,28.2162,-88.5583,39.4,28.9,11111222
W and T,ioos:station:wmo:42901:2,2020-09-19T03:20:00Z,28.2162,-88.5583,39.4,28.8,11111222
W and T,ioos:station:wmo:42901:2,2020-09-19T03:40:00Z,28.2162,-88.5583,39.4,28.8,11111222
W and T,ioos:station:wmo:42901:2,2020-09-19T04:00:00Z,28.2162,-88.5583,39.4,28.8,11111222
W and T,ioos:station:wmo:42901:2,2020-09-19T04:20:00Z,28.2162,-88.5583,39.3,28.9,11111222
W and T,ioos:station:wmo:42901:2,2020-09-19T04:40:00Z,28.2162,-88.5583,39.4,28.9,11111222
W and T,ioos:station:wmo:42901:2,2020-09-19T05:00:00Z,28.2162,-88.5583,39.4,28.9,11111222
W and T,ioos:station:wmo:42901:2,2020-09-19T05:20:00Z,28.2162,-88.5583,39.4,28.9,11111222
W and T,ioos:station:wmo:42901:2,2020-09-19T05:40:00Z,28.2162,-88.5583,39.4,28.8,11111222
W and T,ioos:station:wmo:42901:2,2020-09-19T06:00:00Z,28.2162,-88.5583,39.4,28.8,11111222
W and T,ioos:station:wmo:42901:2,2020-09-19T06:20:00Z,28.2162,-88.5583,39.4,28.8,11111222
W and T,ioos:station:wmo:42901:2,2020-09-19T06:40:00Z,28.2162,-88.5583,39.4,28.8,11111222
W and T,ioos:station:wmo:42901:2,2020-09-19T07:00:00Z,28.2162,-88.5583,39.1,28.8,11111222
W and T,ioos:station:wmo:42901:2,2020-09-19T07:20:00Z,28.2162,-88.5583,39.1,28.8,11111222
W and T,ioos:station:wmo:42901:2,2020-09-19T07:40:00Z,28.2162,-88.5583,39.0,28.8,11111222
W and T,ioos:station:wmo:42901:2,2020-09-19T08:00:00Z,28.2162,-88.5583,39.5,28.8,11111222
W and T,ioos:station:wmo:42901:2,2020-09-19T08:20:00Z,28.2162,-88.5583,39.6,28.8,11111222
W and T,ioos:station:wmo:42901:2,2020-09-19T08:40:00Z,28.2162,-88.5583,39.4,28.8,11111222
W and T,ioos:station:wmo:42901:2,2020-09-19T09:00:00Z,28.2162,-88.5583,39.4,28.8,11111222
W and T,ioos:station:wmo:42901:2,2020-09-19T09:20:00Z,28.2162,-88.5583,39.5,28.8,11111222
W and T,ioos:station:wmo:42901:2,2020-09-19T09:40:00Z,28.2162,-88.5583,39.6,28.8,11111222
W and T,ioos:station:wmo:42901:2,2020-09-19T10:00:00Z,28.2162,-88.5583,39.3,28.8,11111222
W and T,ioos:station:wmo:42901:2,2020-09-19T10:20:00Z,28.2162,-88.5583,39.3,28.8,11111222
W and T,ioos:station:wmo:42901:2,2020-09-19T10:40:00Z,28.2162,-88.5583,39.4,28.8,11111222
W and T,ioos:station:wmo:42901:2,2020-09-19T11:00:00Z,28.2162,-88.5583,39.4,28.8,11111222
W and T,ioos:station:wmo:42901:2,2020-09-19T11:20:00Z,28.2162,-88.5583,39.4,28.8,11111222
W and T,ioos:station:wmo:42901:2,2020-09-19T11:40:00Z,28.2162,-88.5583,39.3,28.8,11111222
W and T,ioos:station:wmo:42901:2,2020-09-19T12:00:00Z,28.2162,-88.5583,39.3,28.8,11111222
W and T,ioos:station:wmo:42901:2,2020-09-19T12:20:00Z,28.2162,-88.5583,39.3,28.8,11111222
W and T,ioos:station:wmo:42901:2,2020-09-19T12:40:00Z,28.2162,-88.5583,39.5,28.8,11111222
W and T,ioos:station:wmo:42901:2,2020-09-19T13:00:00Z,28.2162,-88.5583,39.6,28.8,11111222
W and T,ioos:station:wmo:42901:2,2020-09-19T13:20:00Z,28.2162,-88.5583,39.3,28.8,11111222
W and T,ioos:station:wmo:42901:2,2020-09-19T13:40:00Z,28.2162,-88.5583,39.3,28.7,11111222
W and T,ioos:station:wmo:42901:2,2020-09-19T14:00:00Z,28.2162,-88.5583,39.3,28.7,11111222
W and T,ioos:station:wmo:42901:2,2020-09-19T14:20:00Z,28.2162,-88.5583,39.2,28.7,11111222
W and T,ioos:station:wmo:42901:2,2020-09-19T14:40:00Z,28.2162,-88.5583,39.2,28.7,11111222
W and T,ioos:station:wmo:42901:2,2020-09-19T15:00:00Z,28.2162,-88.5583,39.1,28.7,11111222
W and T,ioos:station:wmo:42901:2,2020-09-19T15:20:00Z,28.2162,-88.5583,39.3,28.7,11111222
W and T,ioos:station:wmo:42901:2,2020-09-19T15:40:00Z,28.2162,-88.5583,39.2,28.6,11111222
W and T,ioos:station:wmo:42901:2,2020-09-19T16:00:00Z,28.2162,-88.5583,39.3,28.6,11111222
W and T,ioos:station:wmo:42901:2,2020-09-19T16:20:00Z,28.2162,-88.5583,39.5,28.6,11111222
W and T,ioos:station:wmo:42901:2,2020-09-19T16:40:00Z,28.2162,-88.5583,39.4,28.6,11111222
W and T,ioos:station:wmo:42901:2,2020-09-19T17:00:00Z,28.2162,-88.5583,39.4,28.6,11111222
W and T,ioos:station:wmo:42901:2,2020-09-19T17:20:00Z,28.2162,-88.5583,39.6,28.6,11111222
W and T,ioos:station:wmo:42901:2,2020-09-19T17:40:00Z,28.2162,-88.5583,39.4,28.6,11111222
W and T,ioos:station:wmo:42901:2,2020-09-19T18:00:00Z,28.2162,-88.5583,39.1,28.6,11111222
W and T,ioos:station:wmo:42901:2,2020-09-19T18:20:00Z,28.2162,-88.5583,39.0,28.5,11111222
W and T,ioos:station:wmo:42901:2,2020-09-19T18:40:00Z,28.2162,-88.5583,39.1,28.5,11111222
W and T,ioos:station:wmo:42901:2,2020-09-19T19:20:00Z,28.2162,-88.5583,39.1,28.4,11111222
W and T,ioos:station:wmo:42901:2,2020-09-19T19:40:00Z,28.2162,-88.5583,39.6,28.4,11111222
W and T,ioos:station:wmo:42901:2,2020-09-19T20:00:00Z,28.2162,-88.5583,39.3,28.5,11111222
W and T,ioos:station:wmo:42901:2,2020-09-19T20:20:00Z,28.2162,-88.5583,39.2,28.5,11111222
W and T,ioos:station:wmo:42901:2,2020-09-19T20:40:00Z,28.2162,-88.5583,38.8,28.5,11111222
W and T,ioos:station:wmo:42901:2,2020-09-19T21:00:00Z,28.2162,-88.5583,39.0,28.5,11111222
W and T,ioos:station:wmo:42901:2,2020-09-19T21:20:00Z,28.2162,-88.5583,38.9,28.5,11111222
W and T,ioos:station:wmo:42901:2,2020-09-19T21:40:00Z,28.2162,-88.5583,38.7,28.5,11111222
W and T,ioos:station:wmo:42901:2,2020-09-19T22:00:00Z,28.2162,-88.5583,38.4,28.6,11111222
W and T,ioos:station:wmo:42901:2,2020-09-19T22:20:00Z,28.2162,-88.5583,38.6,28.6,11111222
W and T,ioos:station:wmo:42901:2,2020-09-19T22:40:00Z,28.2162,-88.5583,38.6,28.5,11111222
W and T,ioos:station:wmo:42901:2,2020-09-19T23:00:00Z,28.2162,-88.5583,38.6,28.5,11111222
W and T,ioos:station:wmo:42901:2,2020-09-19T23:20:00Z,28.2162,-88.5583,38.3,28.5,11111222
W and T,ioos:station:wmo:42901:2,2020-09-19T23:40:00Z,28.2162,-88.5583,38.5,28.5,11111222
W and T,ioos:station:wmo:42901:2,2020-09-20T00:00:00Z,28.2162,-88.5583,38.5,28.4,11111222
W and T,ioos:station:wmo:42901:2,2020-09-20T00:20:00Z,28.2162,-88.5583,38.7,28.4,11111222
W and T,ioos:station:wmo:42901:2,2020-09-20T00:40:00Z,28.2162,-88.5583,39.0,28.4,11111222
W and T,ioos:station:wmo:42901:2,2020-09-20T01:00:00Z,28.2162,-88.5583,38.8,28.4,11111222
W and T,ioos:station:wmo:42901:2,2020-09-20T01:20:00Z,28.2162,-88.5583,39.0,28.3,11111222
W and T,ioos:station:wmo:42901:2,2020-09-20T01:40:00Z,28.2162,-88.5583,39.0,28.3,11111222
W and T,ioos:station:wmo:42901:2,2020-09-20T02:00:00Z,28.2162,-88.5583,39.7,28.3,11111222
W and T,ioos:station:wmo:42901:2,2020-09-20T02:20:00Z,28.2162,-88.5583,39.5,28.4,11111222
W and T,ioos:station:wmo:42901:2,2020-09-20T02:40:00Z,28.2162,-88.5583,38.6,28.4,11111222
W and T,ioos:station:wmo:42901:2,2020-09-20T03:00:00Z,28.2162,-88.5583,38.9,28.4,11111222
W and T,ioos:station:wmo:42901:2,2020-09-20T03:20:00Z,28.2162,-88.5583,39.0,28.4,11111222
W and T,ioos:station:wmo:42901:2,2020-09-20T03:40:00Z,28.2162,-88.5583,39.0,28.4,11111222
W and T,ioos:station:wmo:42901:2,2020-09-20T04:00:00Z,28.2162,-88.5583,39.1,28.4,11111222
W and T,ioos:station:wmo:42901:2,2020-09-20T04:20:00Z,28.2162,-88.5583,39.3,28.4,11111222
W and T,ioos:station:wmo:42901:2,2020-09-20T04:40:00Z,28.2162,-88.5583,39.3,28.4,11111222
W and T,ioos:station:wmo:42901:2,2020-09-20T05:00:00Z,28.2162,-88.5583,39.1,28.4,11111222
W and T,ioos:station:wmo:42901:2,2020-09-20T05:20:00Z,28.2162,-88.5583,39.2,28.4,11111222
W and T,ioos:station:wmo:42901:2,2020-09-20T05:40:00Z,28.2162,-88.5583,39.6,28.4,11111222
W and T,ioos:station:wmo:42901:2,2020-09-20T06:00:00Z,28.2162,-88.5583,39.5,28.4,11111222
W and T,ioos:station:wmo:42901:2,2020-09-20T06:20:00Z,28.2162,-88.5583,39.3,28.3,11111222
W and T,ioos:station:wmo:42901:2,2020-09-20T06:40:00Z,28.2162,-88.5583,39.7,28.3,11111222
W and T,ioos:station:wmo:42901:2,2020-09-20T07:00:00Z,28.2162,-88.5583,39.3,28.3,11111222
W and T,ioos:station:wmo:42901:2,2020-09-20T07:20:00Z,28.2162,-88.5583,39.6,28.3,11111222
W and T,ioos:station:wmo:42901:2,2020-09-20T07:40:00Z,28.2162,-88.5583,39.6,28.3,11111222
W and T,ioos:station:wmo:42901:2,2020-09-20T08:00:00Z,28.2162,-88.5583,39.4,28.3,11111222
W and T,ioos:station:wmo:42901:2,2020-09-20T08:20:00Z,28.2162,-88.5583,39.5,28.3,11111222
W and T,ioos:station:wmo:42901:2,2020-09-20T08:40:00Z,28.2162,-88.5583,39.5,28.3,11111222
W and T,ioos:station:wmo:42901:2,2020-09-20T09:00:00Z,28.2162,-88.5583,39.4,28.3,11111222
W and T,ioos:station:wmo:42901:2,2020-09-20T09:20:00Z,28.2162,-88.5583,39.4,28.3,11111222
W and T,ioos:station:wmo:42901:2,2020-09-20T09:40:00Z,28.2162,-88.5583,39.3,28.3,11111222
W and T,ioos:station:wmo:42901:2,2020-09-20T10:00:00Z,28.2162,-88.5583,39.4,28.3,11111222
W and T,ioos:station:wmo:42901:2,2020-09-20T10:20:00Z,28.2162,-88.5583,39.5,28.3,11111222
W and T,ioos:station:wmo:42901:2,2020-09-20T10:40:00Z,28.2162,-88.5583,39.5,28.3,11111222
W and T,ioos:station:wmo:42901:2,2020-09-20T11:00:00Z,28.2162,-88.5583,39.4,28.3,11111222
W and T,ioos:station:wmo:42901:2,2020-09-20T11:20:00Z,28.2162,-88.5583,39.6,28.3,11111222
W and T,ioos:station:wmo:42901:2,2020-09-20T11:40:00Z,28.2162,-88.5583,39.4,28.3,11111222
W and T,ioos:station:wmo:42901:2,2020-09-20T12:00:00Z,28.2162,-88.5583,39.6,28.3,11111222
W and T,ioos:station:wmo:42901:2,2020-09-20T12:20:00Z,28.2162,-88.5583,39.7,28.3,11111222
W and T,ioos:station:wmo:42901:2,2020-09-20T12:40:00Z,28.2162,-88.5583,39.7,28.2,11111222
W and T,ioos:station:wmo:42901:2,2020-09-20T13:00:00Z,28.2162,-88.5583,39.3,28.2,11111222
W and T,ioos:station:wmo:42901:2,2020-09-20T13:20:00Z,28.2162,-88.5583,39.4,28.1,11111222
W and T,ioos:station:wmo:42901:2,2020-09-20T13:40:00Z,28.2162,-88.5583,38.9,28.2,11111222
W and T,ioos:station:wmo:42901:2,2020-09-20T14:00:00Z,28.2162,-88.5583,39.4,28.2,11111222
W and T,ioos:station:wmo:42901:2,2020-09-20T14:20:00Z,28.2162,-88.5583,39.3,28.1,11111222
W and T,ioos:station:wmo:42901:2,2020-09-20T14:40:00Z,28.2162,-88.5583,39.4,28.1,11111222
W and T,ioos:station:wmo:42901:2,2020-09-20T15:00:00Z,28.2162,-88.5583,39.3,28.2,11111222
W and T,ioos:station:wmo:42901:2,2020-09-20T15:20:00Z,28.2162,-88.5583,39.0,28.2,11111222
W and T,ioos:station:wmo:42901:2,2020-09-20T15:40:00Z,28.2162,-88.5583,39.1,28.2,11111222
W and T,ioos:station:wmo:42901:2,2020-09-20T16:00:00Z,28.2162,-88.5583,39.4,28.2,11111222
W and T,ioos:station:wmo:42901:2,2020-09-20T16:20:00Z,28.2162,-88.5583,39.5,28.2,11111222
W and T,ioos:station:wmo:42901:2,2020-09-20T16:40:00Z,28.2162,-88.5583,39.1,28.3,11111222
W and T,ioos:station:wmo:42901:2,2020-09-20T17:00:00Z,28.2162,-88.5583,38.9,28.3,11111222
W and T,ioos:station:wmo:42901:2,2020-09-20T17:20:00Z,28.2162,-88.5583,39.7,28.3,11111222
W and T,ioos:station:wmo:42901:2,2020-09-20T17:40:00Z,28.2162,-88.5583,39.5,28.3,11111222
W and T,ioos:station:wmo:42901:2,2020-09-20T18:00:00Z,28.2162,-88.5583,39.5,28.3,11111222
W and T,ioos:station:wmo:42901:2,2020-09-20T18:20:00Z,28.2162,-88.5583,39.0,28.3,11111222
W and T,ioos:station:wmo:42901:2,2020-09-20T18:40:00Z,28.2162,-88.5583,39.3,28.3,11111222
W and T,ioos:station:wmo:42901:2,2020-09-20T19:00:00Z,28.2162,-88.5583,39.1,28.3,11111222
W and T,ioos:station:wmo:42901:2,2020-09-20T19:20:00Z,28.2162,-88.5583,39.0,28.3,11111222
W and T,ioos:station:wmo:42901:2,2020-09-20T19:40:00Z,28.2162,-88.5583,39.0,28.3,11111222
W and T,ioos:station:wmo:42901:2,2020-09-20T20:00:00Z,28.2162,-88.5583,39.1,28.3,11111222
W and T,ioos:station:wmo:42901:2,2020-09-20T20:20:00Z,28.2162,-88.5583,38.9,28.3,11111222
W and T,ioos:station:wmo:42901:2,2020-09-20T20:40:00Z,28.2162,-88.5583,39.4,28.3,11111222
W and T,ioos:station:wmo:42901:2,2020-09-20T21:00:00Z,28.2162,-88.5583,39.0,28.3,11111222
W and T,ioos:station:wmo:42901:2,2020-09-20T21:20:00Z,28.2162,-88.5583,39.1,28.3,11111222
W and T,ioos:station:wmo:42901:2,2020-09-20T21:40:00Z,28.2162,-88.5583,39.0,28.3,11111222
W and T,ioos:station:wmo:42901:2,2020-09-20T22:00:00Z,28.2162,-88.5583,38.8,28.3,11111222
W and T,ioos:station:wmo:42901:2,2020-09-20T22:20:00Z,28.2162,-88.5583,39.1,28.3,11111222
W and T,ioos:station:wmo:42901:2,2020-09-20T22:40:00Z,28.2162,-88.5583,38.9,28.3,11111222
W and T,ioos:station:wmo:42901:2,2020-09-20T23:00:00Z,28.2162,-88.5583,38.8,28.3,11111222
W and T,ioos:station:wmo:42901:2,2020-09-20T23:20:00Z,28.2162,-88.5583,39.0,28.3,11111222
W and T,ioos:station:wmo:42901:2,2020-09-20T23:40:00Z,28.2162,-88.5583,38.8,28.3,11111222
W and T,ioos:station:wmo:42901:2,2020-09-21T00:00:00Z,28.2162,-88.5583,38.8,28.3,11111222
W and T,ioos:station:wmo:42901:2,2020-09-21T00:20:00Z,28.2162,-88.5583,38.6,28.3,11111222
W and T,ioos:station:wmo:42901:2,2020-09-21T00:40:00Z,28.2162,-88.5583,38.8,28.3,11111222
W and T,ioos:station:wmo:42901:2,2020-09-21T01:00:00Z,28.2162,-88.5583,39.0,28.3,11111222
W and T,ioos:station:wmo:42901:2,2020-09-21T01:20:00Z,28.2162,-88.5583,39.0,28.3,11111222
W and T,ioos:station:wmo:42901:2,2020-09-21T01:40:00Z,28.2162,-88.5583,39.1,28.3,11111222
W and T,ioos:station:wmo:42901:2,2020-09-21T02:00:00Z,28.2162,-88.5583,39.0,28.3,11111222
W and T,ioos:station:wmo:42901:2,2020-09-21T02:20:00Z,28.2162,-88.5583,38.9,28.3,11111222
W and T,ioos:station:wmo:42901:2,2020-09-21T02:40:00Z,28.2162,-88.5583,39.1,28.3,11111222
W and T,ioos:station:wmo:42901:2,2020-09-21T03:00:00Z,28.2162,-88.5583,39.0,28.3,11111222
W and T,ioos:station:wmo:42901:2,2020-09-21T03:20:00Z,28.2162,-88.5583,38.9,28.3,11111222
W and T,ioos:station:wmo:42901:2,2020-09-21T03:40:00Z,28.2162,-88.5583,39.1,28.3,11111222
W and T,ioos:station:wmo:42901:2,2020-09-21T04:00:00Z,28.2162,-88.5583,38.9,28.3,11111222
W and T,ioos:station:wmo:42901:2,2020-09-21T04:20:00Z,28.2162,-88.5583,38.8,28.3,11111222
W and T,ioos:station:wmo:42901:2,2020-09-21T04:40:00Z,28.2162,-88.5583,38.9,28.3,11111222
W and T,ioos:station:wmo:42901:2,2020-09-21T05:00:00Z,28.2162,-88.5583,39.1,28.3,11111222
W and T,ioos:station:wmo:42901:2,2020-09-21T05:20:00Z,28.2162,-88.5583,38.6,28.3,11111222
W and T,ioos:station:wmo:42901:2,2020-09-21T06:00:00Z,28.2162,-88.5583,38.9,28.3,11111222
W and T,ioos:station:wmo:42901:2,2020-09-21T06:20:00Z,28.2162,-88.5583,38.8,28.3,11111222
W and T,ioos:station:wmo:42901:2,2020-09-21T06:40:00Z,28.2162,-88.5583,38.9,28.2,11111222
W and T,ioos:station:wmo:42901:2,2020-09-21T07:00:00Z,28.2162,-88.5583,38.9,28.2,11111222
W and T,ioos:station:wmo:42901:2,2020-09-21T07:20:00Z,28.2162,-88.5583,38.9,28.1,11111222
W and T,ioos:station:wmo:42901:2,2020-09-21T07:40:00Z,28.2162,-88.5583,38.9,28.2,11111222
W and T,ioos:station:wmo:42901:2,2020-09-21T08:00:00Z,28.2162,-88.5583,38.9,28.2,11111222
W and T,ioos:station:wmo:42901:2,2020-09-21T08:20:00Z,28.2162,-88.5583,38.9,28.2,11111222
W and T,ioos:station:wmo:42901:2,2020-09-21T08:40:00Z,28.2162,-88.5583,38.9,28.2,11111222
W and T,ioos:station:wmo:42901:2,2020-09-21T09:00:00Z,28.2162,-88.5583,38.8,28.2,11111222
W and T,ioos:station:wmo:42901:2,2020-09-21T09:20:00Z,28.2162,-88.5583,39.0,28.3,11111222
W and T,ioos:station:wmo:42901:2,2020-09-21T09:40:00Z,28.2162,-88.5583,38.9,28.3,11111222
W and T,ioos:station:wmo:42901:2,2020-09-21T10:00:00Z,28.2162,-88.5583,39.0,28.2,11111222
W and T,ioos:station:wmo:42901:2,2020-09-21T10:20:00Z,28.2162,-88.5583,39.1,28.2,11111222
W and T,ioos:station:wmo:42901:2,2020-09-21T10:40:00Z,28.2162,-88.5583,38.9,28.2,11111222
W and T,ioos:station:wmo:42901:2,2020-09-21T11:00:00Z,28.2162,-88.5583,38.9,28.2,11111222
W and T,ioos:station:wmo:42901:2,2020-09-21T11:20:00Z,28.2162,-88.5583,39.0,28.2,11111222
W and T,ioos:station:wmo:42901:2,2020-09-21T11:40:00Z,28.2162,-88.5583,39.0,28.2,11111222
W and T,ioos:station:wmo:42901:2,2020-09-21T12:00:00Z,28.2162,-88.5583,39.1,28.2,11111222
W and T,ioos:station:wmo:42901:2,2020-09-21T12:20:00Z,28.2162,-88.5583,38.9,28.2,11111222
W and T,ioos:station:wmo:42901:2,2020-09-21T12:40:00Z,28.2162,-88.5583,38.9,28.2,11111222
W and T,ioos:station:wmo:42901:2,2020-09-21T13:00:00Z,28.2162,-88.5583,39.2,28.2,11111222
W and T,ioos:station:wmo:42901:2,2020-09-21T13:20:00Z,28.2162,-88.5583,38.8,28.2,11111222
W and T,ioos:station:wmo:42901:2,2020-09-21T13:40:00Z,28.2162,-88.5583,38.7,28.2,11111222
W and T,ioos:station:wmo:42901:2,2020-09-21T14:00:00Z,28.2162,-88.5583,38.9,28.2,11111222
W and T,ioos:station:wmo:42901:2,2020-09-21T14:20:00Z,28.2162,-88.5583,38.9,28.2,11111222
W and T,ioos:station:wmo:42901:2,2020-09-21T14:40:00Z,28.2162,-88.5583,38.9,28.2,11111222
W and T,ioos:station:wmo:42901:2,2020-09-21T15:00:00Z,28.2162,-88.5583,39.0,28.2,11111222
W and T,ioos:station:wmo:42901:2,2020-09-21T15:20:00Z,28.2162,-88.5583,39.0,28.2,11111222
W and T,ioos:station:wmo:42901:2,2020-09-21T15:40:00Z,28.2162,-88.5583,38.9,28.2,11111222
W and T,ioos:station:wmo:42901:2,2020-09-21T16:00:00Z,28.2162,-88.5583,39.2,28.2,11111222
W and T,ioos:station:wmo:42901:2,2020-09-21T16:20:00Z,28.2162,-88.5583,38.9,28.2,11111222
W and T,ioos:station:wmo:42901:2,2020-09-21T16:40:00Z,28.2162,-88.5583,39.0,28.2,11111222
W and T,ioos:station:wmo:42901:2,2020-09-21T17:00:00Z,28.2162,-88.5583,38.8,28.2,11111222
W and T,ioos:station:wmo:42901:2,2020-09-21T17:20:00Z,28.2162,-88.5583,38.8,28.3,11111222
W and T,ioos:station:wmo:42901:2,2020-09-21T17:40:00Z,28.2162,-88.5583,38.9,28.3,11111222
W and T,ioos:station:wmo:42901:2,2020-09-21T18:00:00Z,28.2162,-88.5583,38.6,28.3,11111222
W and T,ioos:station:wmo:42901:2,2020-09-21T18:20:00Z,28.2162,-88.5583,38.9,28.3,11111222
W and T,ioos:station:wmo:42901:2,2020-09-21T18:40:00Z,28.2162,-88.5583,38.9,28.3,11111222
W and T,ioos:station:wmo:42901:2,2020-09-21T19:00:00Z,28.2162,-88.5583,38.9,28.3,11111222
W and T,ioos:station:wmo:42901:2,2020-09-21T19:20:00Z,28.2162,-88.5583,38.7,28.3,11111222